Change the Weather History Date:

Saturday, May 25, 2013

  Actual Average Record
Temperature  
Mean Temperature 76 °F 75 °F  
Max Temperature 85 °F 87 °F 102 °F (1989)
Min Temperature 67 °F 64 °F 46 °F (1947)
Degree Days  
Heating Degree Days 0 0  
Month to date heating degree days 50 13  
Since 1 July heating degree days 2301 2555  
Cooling Degree Days 11 11  
Month to date cooling degree days 202 198  
Year to date cooling degree days 378 331  
Growing Degree Days 25 (Base 50)    
Moisture  
Dew Point 65 °F    
Average Humidity 72    
Maximum Humidity 93    
Minimum Humidity 51    
Precipitation  
Precipitation T in 0.12 in 1.54 in (1919)
Month to date precipitation 1.98 2.42  
Year to date precipitation 6.20 8.18  
Sea Level Pressure  
Sea Level Pressure 30.02 in    
Wind  
Wind Speed 15 mph (SSE)    
Max Wind Speed 25 mph    
Max Gust Speed 30 mph    
Visibility 10 miles    
Events      
T = Trace of Precipitation, MM = Missing Value Source: NWS Daily Summary

Daily Weather History Graph

Daily Weather History Graph

Search for Another Location

Airport or City:

Trip Planner

Search our weather history database for the weather conditions in past years. The results will help you decide how hot, cold, wet, or windy it might be!

Date:

Astronomy

May. 25, 2013 Rise Set
Actual Time 6:34 AM CDT 8:36 PM CDT
Civil Twilight 6:07 AM CDT 9:04 PM CDT
Nautical Twilight 5:33 AM CDT 9:38 PM CDT
Astronomical Twilight 4:57 AM CDT 10:14 PM CDT
Moon 9:27 PM CDT (5/25) 7:02 AM CDT (5/25)
Length of Visible Light 14h 57m
Length of Day
14h 02m
Full, 100% of the Moon is Illuminated
May 25
Full
May 31
Last Quarter
Jun 8
New
Jun 16
First Quarter
Jun 23
Full

Hourly Weather History & Observations

Time (CDT) Temp. Heat Index Dew Point Humidity Pressure Visibility Wind Dir Wind Speed Gust Speed Precip Events Conditions
12:52 AM 69.1 °F - 62.1 °F 78% 30.05 in 10.0 mi SSE 12.7 mph - N/A   Mostly Cloudy
1:52 AM 68.0 °F - 62.1 °F 81% 30.05 in 10.0 mi SSE 13.8 mph - N/A   Partly Cloudy
2:52 AM 66.9 °F - 63.0 °F 87% 30.06 in 10.0 mi SSE 12.7 mph - N/A   Overcast
3:52 AM 68.0 °F - 64.0 °F 87% 30.04 in 10.0 mi SSE 12.7 mph - N/A   Mostly Cloudy
4:17 AM 68.0 °F - 64.4 °F 88% 30.11 in 10.0 mi SE 11.5 mph - N/A   Mostly Cloudy
4:52 AM 68.0 °F - 64.0 °F 87% 30.03 in 10.0 mi SSE 9.2 mph - N/A   Overcast
5:52 AM 66.9 °F - 64.0 °F 90% 30.04 in 10.0 mi SE 9.2 mph - N/A   Overcast
6:52 AM 66.9 °F - 64.9 °F 93% 30.06 in 10.0 mi SE 5.8 mph - 0.00 in   Overcast
7:52 AM 69.1 °F - 66.0 °F 90% 30.06 in 10.0 mi SSE 8.1 mph - N/A   Overcast
8:17 AM 69.8 °F - 66.2 °F 88% 30.12 in 10.0 mi SSE 8.1 mph - N/A   Overcast
8:36 AM 69.8 °F - 66.2 °F 88% 30.12 in 10.0 mi SE 13.8 mph - N/A   Mostly Cloudy
8:52 AM 71.1 °F - 66.9 °F 87% 30.06 in 10.0 mi SE 11.5 mph - N/A   Mostly Cloudy
9:52 AM 75.0 °F - 66.9 °F 76% 30.06 in 10.0 mi SSE 17.3 mph - N/A   Mostly Cloudy
10:26 AM 75.2 °F - 66.2 °F 73% 30.12 in 10.0 mi SSE 19.6 mph - N/A   Mostly Cloudy
10:52 AM 78.1 °F - 64.9 °F 64% 30.05 in 10.0 mi SE 18.4 mph - N/A   Mostly Cloudy
11:13 AM 78.8 °F - 64.4 °F 61% 30.11 in 10.0 mi SE 18.4 mph 24.2 mph N/A   Scattered Clouds
11:52 AM 79.0 °F - 64.0 °F 60% 30.05 in 10.0 mi SE 18.4 mph 25.3 mph N/A   Overcast
12:52 PM 78.1 °F - 64.9 °F 64% 30.04 in 10.0 mi SE 17.3 mph - N/A   Mostly Cloudy
1:52 PM 82.0 °F 84.5 °F 66.9 °F 60% 30.01 in 10.0 mi SSE 21.9 mph 27.6 mph N/A   Partly Cloudy
2:52 PM 82.0 °F 84.1 °F 66.0 °F 58% 29.99 in 10.0 mi SSE 16.1 mph 27.6 mph N/A   Mostly Cloudy
3:52 PM 82.9 °F 84.6 °F 64.9 °F 54% 29.96 in 10.0 mi SSE 23.0 mph 28.8 mph N/A   Mostly Cloudy
4:52 PM 84.0 °F 85.8 °F 64.9 °F 53% 29.94 in 10.0 mi South 19.6 mph 28.8 mph N/A   Scattered Clouds
5:52 PM 82.9 °F 84.4 °F 64.0 °F 53% 29.93 in 10.0 mi SSE 16.1 mph - N/A   Partly Cloudy
6:52 PM 82.9 °F 84.4 °F 64.0 °F 53% 29.91 in 10.0 mi SSE 17.3 mph 25.3 mph N/A   Clear
7:52 PM 81.0 °F 82.5 °F 64.0 °F 56% 29.91 in 10.0 mi SSE 17.3 mph 24.2 mph N/A   Partly Cloudy
8:52 PM 78.1 °F - 64.9 °F 64% 29.93 in 10.0 mi SSE 15.0 mph 26.5 mph N/A   Clear
9:52 PM 75.0 °F - 66.9 °F 76% 29.95 in 10.0 mi SE 15.0 mph - N/A   Clear
10:52 PM 73.9 °F - 66.9 °F 79% 29.99 in 10.0 mi SSE 15.0 mph - N/A   Clear
11:52 PM 73.0 °F - 66.9 °F 81% 29.98 in 10.0 mi SSE 19.6 mph - N/A   Clear